Regional Weather Roundup
Issued by NWS

Home | Current Version | Previous Version | Graphics & Text | Print | Product List | Glossary On
Versions: 1 2 3 4 5 6 7 8 9 10 11 12 13 14 15 16 17 18 19 20 21 22 23 24 25 26 27 28 29 30 31 32 33 34 35 36 37 38 39 40 41 42 43 44 45 46 47 48 49 50
000
ASUS43 KIND 212109
RWRIN

WEATHER ROUNDUP FOR INDIANA
NATIONAL WEATHER SERVICE INDIANAPOLIS IN
400 PM EST SUN DEC 21 2014

NOTE: "FAIR" INDICATES FEW OR NO CLOUDS BELOW 12,000 FEET WITH NO
SIGNIFICANT WEATHER AND/OR OBSTRUCTIONS TO VISIBILITY.

* - STATION DOES NOT REPORT WEATHER SUCH AS PRECIPITATION OR FOG.

+ - STATION NOT QUALITY CONTROLLED BY THE NATIONAL WEATHER SERVICE.
    USE DATA WITH CAUTION...ESPECIALLY DEWPOINT AND RELATIVE
    HUMIDITY OBSERVATIONS.

INZ001>003-010>013-019-020-212200-
NORTHWEST INDIANA

CITY           SKY/WX    TMP DP  RH WIND       PRES   REMARKS
GARY /AIRPORT/ CLOUDY    37  25  60 S9        30.12F
KNOX *+        MOSUNNY   38  25  61 S12       30.13F
LA PORTE +     PTSUNNY   38  30  73 S5        30.13F
MICHIGAN CITY+ CLOUDY    36  25  64 S3        30.13F
MONTICELLO +   MOSUNNY   38  30  72 S7        30.14S
RENSSELAER +   PTSUNNY   37  32  81 S9        30.12F
VALPARAISO     CLOUDY    36  28  73 SE6       30.13F

$$

LMZ046-743>745-212200-
SOUTHERN LAKE MICHIGAN

STATION/POSITION TIME  TEMP WIND        PRES
                       AIR  DIR/SP/G
                 (UTC) (F)  (DEG/KT/KT) (MB)

$$

INZ004-005-014>016-021>024-212200-
NORTH CENTRAL INDIANA

CITY           SKY/WX    TMP DP  RH WIND       PRES   REMARKS
GOSHEN         MOSUNNY   36  27  69 SE12      30.15F
LOGANSPORT +   MOSUNNY   36  28  75 SE9       30.15F
PERU/GRISSOM   SUNNY     37  33  86 SE12      30.15F
ROCHESTER +    MOSUNNY   37  30  75 SE7       30.15F
SOUTH BEND     PTSUNNY   38  28  67 S15       30.14
WARSAW +       MOSUNNY   36  27  69 SE5       30.15F

$$

INZ006>009-017-018-025>027-212200-
NORTHEAST INDIANA

CITY           SKY/WX    TMP DP  RH WIND       PRES   REMARKS
ANGOLA *+      CLOUDY    34  25  69 S7        30.16F WCI  28
AUBURN +       MOSUNNY   34  27  75 SE7       30.19S WCI  28
FORT WAYNE     MOSUNNY   35  26  69 SE8       30.18F WCI  29
HUNTINGTON +   MOSUNNY   36  27  72 SE8       30.16F

$$

INZ028-029-035-036-043>045-051>053-212200-
WEST CENTRAL INDIANA

CITY           SKY/WX    TMP DP  RH WIND       PRES   REMARKS
CRAWFORDSVL +  SUNNY     36  25  64 SE7       30.13
GREENCASTLE +  MOSUNNY   36  27  69 SE9       30.14S
LAFAYETTE      MOSUNNY   37  29  72 SE9       30.13F
TERRE HAUTE    SUNNY     38  29  70 SE7       30.13F

$$

INZ030>032-037>040-046>048-054>057-064-065-212200-
CENTRAL INDIANA

CITY           SKY/WX    TMP DP  RH WIND       PRES   REMARKS
CP ATTERBURY + PTSUNNY   37  30  75 MISG      30.17S
COLUMBUS       SUNNY     37  30  75 S5        30.17F
FRANKFORT +    SUNNY     38  30  74 SE10      30.15F
INDIANAPOLIS   PTSUNNY   35  27  72 SE8       30.14F WCI  29
-EAGLE CREEK   MOSUNNY   36  27  69 SE8       30.15F
KOKOMO *+      SUNNY     36  28  75 S10       30.15F
MARION +       SUNNY     36  28  72 SE8       30.16F
MT COMFORT *+  MOSUNNY   36  23  60 SE7       30.16S
SHELBYVILLE    MOSUNNY   39  29  67 SE6       30.15F
ZIONSVILLE +   SUNNY     37  26  65 SE7       30.15S

$$

INZ033-034-041-042-049-050-058-059-212200-
EAST CENTRAL INDIANA

CITY           SKY/WX    TMP DP  RH WIND       PRES   REMARKS
MUNCIE         MOSUNNY   36  27  69 SE9       30.16F

$$

INZ060-061-067>069-081>083-085>088-212200-
SOUTHWEST INDIANA

CITY           SKY/WX    TMP DP  RH WIND       PRES   REMARKS
EVANSVILLE     MOSUNNY   45  31  58 E8        30.12F
HUNTINGBURG *+ MOSUNNY   43  28  56 E8        30.13F
WASHINGTON +   MOSUNNY   41  29  62 E5        30.14F

$$

INZ062-063-066-070>080-084-089>092-212200-
SOUTH CENTRAL AND SOUTHEAST INDIANA

CITY           SKY/WX    TMP DP  RH WIND       PRES   REMARKS
BLOOMINGTON    PTSUNNY   37  29  72 E7        30.14S

$$




USA.gov is the U.S. government's official web portal to all federal, state and local government web resources and services.